Weather History for KALS - September, 2011

Change the Weather History Date:

Wednesday, September 21, 2011

  Actual Average Record
Temperature  
Mean Temperature 58 °F 53 °F  
Max Temperature 78 °F 71 °F 82 °F (2010)
Min Temperature 37 °F 35 °F 17 °F (1978)
Degree Days  
Heating Degree Days 7 12  
Month to date heating degree days 179 176  
Since 1 July heating degree days 192 305  
Cooling Degree Days 0 0  
Month to date cooling degree days 1 0  
Year to date cooling degree days 182 51  
Growing Degree Days 6 (Base 50)    
Moisture  
Dew Point 34 °F    
Average Humidity 48    
Maximum Humidity 79    
Minimum Humidity 16    
Precipitation  
Precipitation 0.05 in 0.03 in 0.50 in (1952)
Month to date precipitation 1.15 0.69  
Year to date precipitation 3.34 5.64  
Snow  
Snow 0.00 in 0.00 in 0.00 in (2002)
Month to date snowfall 0.0 0.0  
Since 1 July snowfall 0.0 0.0  
Since 1 September snowfall 0.0 0.0  
Snow Depth 0.00 in    
Sea Level Pressure  
Sea Level Pressure 30.10 in    
Wind  
Wind Speed 7 mph (ESE)    
Max Wind Speed 23 mph    
Max Gust Speed 36 mph    
Visibility 9 miles    
Events Rain , Thunderstorm    
T = Trace of Precipitation, MM = Missing Value Source: NWS Daily Summary

Daily Weather History Graph

Daily Weather History Graph

Search for Another Location

Airport or City:

Trip Planner

Search our weather history database for the weather conditions in past years. The results will help you decide how hot, cold, wet, or windy it might be!

Date:

Astronomy

Sep. 21, 2011 Rise Set
Actual Time 6:50 AM MDT 7:02 PM MDT
Civil Twilight 6:24 AM MDT 7:28 PM MDT
Nautical Twilight 5:53 AM MDT 7:58 PM MDT
Astronomical Twilight 5:22 AM MDT 8:29 PM MDT
Moon 12:19 AM MDT (9/21) 3:07 PM MDT (9/21)
Length of Visible Light 13h 04m
Length of Day
12h 12m
Last Quarter, 38% of the Moon is Illuminated
Sep 21
Last Quarter
Sep 27
New
Oct 3
First Quarter
Oct 11
Full
Oct 19
Last Quarter

Hourly Weather History & Observations

Time (MDT) Temp. Windchill Dew Point Humidity Pressure Visibility Wind Dir Wind Speed Gust Speed Precip Events Conditions
1:52 AM 45.0 °F 41.2 °F 33.1 °F 63% 30.04 in 10.0 mi South 6.9 mph - N/A   Overcast
2:52 AM 43.0 °F 38.2 °F 32.0 °F 65% 30.04 in 10.0 mi South 8.1 mph - N/A   Partly Cloudy
3:52 AM 39.9 °F 35.1 °F 30.9 °F 70% 30.05 in 10.0 mi SSE 6.9 mph - N/A   Clear
4:52 AM 37.9 °F 34.4 °F 30.9 °F 76% 30.06 in 10.0 mi East 4.6 mph - N/A   Clear
5:52 AM 39.0 °F 34.8 °F 34.0 °F 82% 30.09 in 10.0 mi ENE 5.8 mph - N/A   Mostly Cloudy
6:52 AM 39.0 °F 36.8 °F 34.0 °F 82% 30.11 in 10.0 mi ENE 3.5 mph - N/A   Mostly Cloudy
7:52 AM 39.0 °F - 34.0 °F 82% 30.14 in 10.0 mi Calm Calm - N/A   Clear
8:52 AM 46.4 °F - 35.6 °F 66% 30.29 in 10.0 mi Calm Calm - N/A   Clear
9:52 AM 54.0 °F - 36.0 °F 51% 30.10 in 10.0 mi ESE 5.8 mph - N/A   Clear
10:52 AM 60.1 °F - 35.1 °F 39% 30.08 in 10.0 mi Calm Calm - N/A   Clear
11:52 AM 66.0 °F - 37.0 °F 34% 30.02 in 10.0 mi Calm Calm - N/A   Clear
12:52 PM 70.0 °F - 32.0 °F 25% 29.98 in - Calm Calm - N/A   Clear
1:52 PM 73.9 °F - 28.0 °F 18% 29.95 in 10.0 mi West 13.8 mph 20.7 mph N/A   Unknown
2:52 PM 73.9 °F - 27.0 °F 18% 29.93 in 10.0 mi West 5.8 mph - N/A   Clear
3:52 PM 75.9 °F - 26.1 °F 16% 29.92 in 10.0 mi Variable 3.5 mph - N/A   Mostly Cloudy
4:17 PM 73.4 °F - 26.6 °F 18% 30.15 in 10.0 mi West 8.1 mph - N/A Thunderstorm Scattered Clouds
4:36 PM 71.6 °F - 26.6 °F 19% 30.15 in 10.0 mi WNW 6.9 mph - N/A Thunderstorm Mostly Cloudy
4:52 PM 73.0 °F - 28.9 °F 20% 29.94 in 10.0 mi NNW 6.9 mph - N/A Thunderstorm Scattered Clouds
5:23 PM 71.6 °F - 30.2 °F 22% 30.15 in 10.0 mi SSW 13.8 mph - N/A   Scattered Clouds
5:52 PM 72.0 °F - 30.9 °F 22% 29.93 in 10.0 mi SW 6.9 mph - N/A   Scattered Clouds
6:06 PM 69.8 °F - 33.8 °F 27% 30.16 in 10.0 mi Variable 6.9 mph - N/A Thunderstorm Mostly Cloudy
6:22 PM 68.0 °F - 33.8 °F 28% 30.16 in 10.0 mi ENE 13.8 mph 20.7 mph N/A   Overcast
6:36 PM 66.2 °F - 33.8 °F 30% 30.20 in 10.0 mi NE 11.5 mph 20.7 mph 0.00 in Rain , Thunderstorm Light Rain
6:47 PM 60.8 °F - 39.2 °F 45% 30.21 in 1.8 mi WNW 13.8 mph 20.7 mph 0.00 in Rain , Thunderstorm Light Thunderstorms and Rain
6:52 PM 59.0 °F - 39.2 °F 48% 30.20 in 1.8 mi Variable 4.6 mph 20.7 mph N/A Rain , Thunderstorm Thunderstorms and Rain
6:54 PM 57.2 °F - 41.0 °F 55% 30.20 in 4.0 mi SE 8.1 mph 20.7 mph 0.01 in Rain , Thunderstorm Thunderstorms and Rain
6:59 PM 57.2 °F - 42.8 °F 59% 30.19 in 8.0 mi SE 4.6 mph - 0.01 in Rain , Thunderstorm Light Rain
7:22 PM 53.6 °F - 44.6 °F 72% 30.20 in 10.0 mi East 15.0 mph - 0.01 in   Overcast
7:52 PM 53.6 °F - 39.2 °F 58% 30.23 in 10.0 mi East 15.0 mph 26.5 mph N/A Rain Light Rain
8:52 PM 52.0 °F - 36.0 °F 54% 30.12 in 10.0 mi East 16.1 mph 25.3 mph 0.00 in   Mostly Cloudy
9:52 PM 52.0 °F - 35.1 °F 53% 30.10 in 10.0 mi ESE 19.6 mph - N/A   Overcast
10:52 PM 50.0 °F - 34.0 °F 54% 30.11 in 10.0 mi East 16.1 mph - N/A   Scattered Clouds
11:52 PM 46.9 °F - 35.1 °F 63% 30.09 in 10.0 mi East 9.2 mph - N/A   Clear